Hourly Data Report for July 28, 2017

TORONTO CITY
ONTARIO

43°40'00.000" N
79°24'00.000" W
112.50 m
6158355
71508
XTO

Download Data

Hourly Data (July 2017)
Hourly Data Report for July 28, 2017
TIME
LST
Temp Definition
°C
Dew Point Definition
°C
Rel Hum Definition
%
Precip. Amount Definition
mm

Wind Dir Definition
10's deg

Wind Spd Definition
km/h
Visibility Definition
km
Stn Press Definition
kPa
Hmdx Definition


Wind Chill Definition


Weather Definition


00:00 20.2 15.2 73 0.0 LegendMM LegendMM   99.96     LegendNANA
01:00 20.0 14.8 72 0.0 LegendMM LegendMM   99.99     LegendNANA
02:00 19.8 14.1 70 0.0 LegendMM LegendMM   99.97     LegendNANA
03:00 19.6 13.5 68 0.0 LegendMM LegendMM   100.00     LegendNANA
04:00 19.2 13.3 69 0.0 LegendMM LegendMM   100.05     LegendNANA
05:00 18.5 13.4 72 0.0 LegendMM LegendMM   100.08     LegendNANA
06:00 18.3 13.1 72 0.0 LegendMM LegendMM   100.10     LegendNANA
07:00 18.7 11.6 63 0.0 LegendMM LegendMM   100.16     LegendNANA
08:00 19.3 11.0 59 0.0 LegendMM LegendMM   100.17     LegendNANA
09:00 19.7 10.8 56 0.0 LegendMM LegendMM   100.19     LegendNANA
10:00 21.0 10.9 52 0.0 LegendMM LegendMM   100.21     LegendNANA
11:00 20.9 10.6 52 0.0 LegendMM LegendMM   100.19     LegendNANA
12:00 21.8 10.4 48 0.0 LegendMM LegendMM   100.17     LegendNANA
13:00 21.8 9.5 45 0.0 LegendMM LegendMM   100.16     LegendNANA
14:00 21.7 10.6 49 0.0 LegendMM LegendMM   100.14     LegendNANA
15:00 22.2 6.2 35 0.0 LegendMM LegendMM   100.13     LegendNANA
16:00 23.3 3.1 27 0.0 LegendMM LegendMM   100.08     LegendNANA
17:00 23.1 7.3 36 0.0 LegendMM LegendMM   100.08     LegendNANA
18:00 21.9 6.3 36 0.0 LegendMM LegendMM   100.09     LegendNANA
19:00 21.8 7.4 39 0.0 LegendMM LegendMM   100.11     LegendNANA
20:00 20.8 7.9 44 0.0 LegendMM LegendMM   100.14     LegendNANA
21:00 19.7 9.0 50 0.0 LegendMM LegendMM   100.19     LegendNANA
22:00 19.0 10.2 57 0.0 LegendMM LegendMM   100.15     LegendNANA
23:00 17.7 10.6 63 0.0 LegendMM LegendMM   100.14     LegendNANA

Notes on Data Quality.

Legend

  • E = Estimated
  • M = Missing
  • NA = Not Available*
  • [empty] = Indicates an unobserved value
Date modified: